KLM1817 EHAM-EDDF

Flight info

Callsign KLM1817
Flight time N/A
Altitude 31000
Route RENDI2N EDUPO Z739 MISGO DCT DIXAT DIXAT1D
Aircraft B739/M-SDE2E3FGHIRWXY/LB1

Departure

Time 2026-04-30 19:36
Airport Amsterdam Airport Schiphol (EHAM)

Arrival

Time N/A
Airport Frankfurt Main Airport (EDDF)
Time Latitude Longitude Altitude Speed Heading
2026-04-30 18:56 52.31032 4.75455 -4 ft 0 kts 149°
2026-04-30 19:24 52.31036 4.75451 -4 ft 2 kts 149°
2026-04-30 19:24 52.31061 4.75388 -4 ft 3 kts 66°
2026-04-30 19:25 52.31056 4.75372 -4 ft 0 kts 58°
2026-04-30 19:29 52.31063 4.75389 -4 ft 5 kts 58°
2026-04-30 19:29 52.31092 4.75460 -4 ft 9 kts 52°
2026-04-30 19:30 52.31199 4.75485 -2 ft 0 kts 357°
2026-04-30 19:30 52.31210 4.75485 -2 ft 4 kts 359°
2026-04-30 19:31 52.31348 4.75476 -4 ft 17 kts 356°
2026-04-30 19:31 52.31420 4.75463 -5 ft 7 kts 324°
2026-04-30 19:31 52.31423 4.75297 -3 ft 8 kts 266°
2026-04-30 19:32 52.31418 4.75151 -7 ft 18 kts 267°
2026-04-30 19:32 52.31413 4.74973 -4 ft 10 kts 268°
2026-04-30 19:32 52.31411 4.74860 -2 ft 10 kts 268°
2026-04-30 19:32 52.31409 4.74775 -1 ft 7 kts 268°
2026-04-30 19:33 52.31416 4.74700 -1 ft 7 kts 300°
2026-04-30 19:33 52.31457 4.74665 -1 ft 7 kts 354°
2026-04-30 19:33 52.31506 4.74665 -2 ft 7 kts
2026-04-30 19:33 52.31557 4.74665 -2 ft 7 kts 359°
2026-04-30 19:34 52.31605 4.74663 -1 ft 7 kts 356°
2026-04-30 19:34 52.31654 4.74674 -3 ft 8 kts 39°
2026-04-30 19:34 52.31670 4.74738 -3 ft 0 kts 86°
2026-04-30 19:35 52.31671 4.74751 -3 ft 5 kts 86°
2026-04-30 19:35 52.31683 4.75144 -5 ft 72 kts 87°
2026-04-30 19:35 52.31723 4.76334 -4 ft 134 kts 86°
2026-04-30 19:35 52.31760 4.78019 370 ft 151 kts 89°
2026-04-30 19:36 52.31803 4.79718 1178 ft 143 kts 92°
2026-04-30 19:36 52.31858 4.81220 2153 ft 135 kts 92°
2026-04-30 19:36 52.32009 4.84917 2782 ft 187 kts 91°
2026-04-30 19:37 52.31903 4.87075 3225 ft 197 kts 107°
2026-04-30 19:37 52.31416 4.89330 3431 ft 224 kts 115°
2026-04-30 19:37 52.30767 4.91759 3986 ft 238 kts 116°
2026-04-30 19:37 52.30097 4.94255 4835 ft 241 kts 115°
2026-04-30 19:38 52.29440 4.96794 5692 ft 245 kts 111°
2026-04-30 19:38 52.28929 4.99477 6515 ft 249 kts 108°
2026-04-30 19:38 52.28464 5.02226 7308 ft 253 kts 107°
2026-04-30 19:38 52.28002 5.04986 8069 ft 257 kts 107°
2026-04-30 19:39 52.27521 5.07831 8833 ft 262 kts 107°
2026-04-30 19:39 52.27026 5.10720 9616 ft 266 kts 107°
2026-04-30 19:39 52.26519 5.13656 10356 ft 271 kts 107°
2026-04-30 19:39 52.25906 5.16638 10732 ft 289 kts 118°
2026-04-30 19:40 52.24748 5.19467 10927 ft 311 kts 126°
2026-04-30 19:40 52.23411 5.22396 11168 ft 331 kts 127°
2026-04-30 19:40 52.22009 5.25438 11759 ft 339 kts 127°
2026-04-30 19:40 52.20591 5.28532 12593 ft 341 kts 126°
2026-04-30 19:41 52.19185 5.31626 13406 ft 345 kts 126°
2026-04-30 19:41 52.17754 5.34795 14177 ft 349 kts 126°
2026-04-30 19:41 52.16310 5.38006 14846 ft 354 kts 126°
2026-04-30 19:41 52.14853 5.41256 15551 ft 357 kts 126°
2026-04-30 19:42 52.13376 5.44553 16260 ft 361 kts 126°
2026-04-30 19:42 52.11889 5.47871 16950 ft 365 kts 126°
2026-04-30 19:42 52.10383 5.51230 17616 ft 369 kts 126°
2026-04-30 19:42 52.08860 5.54621 18287 ft 373 kts 126°
2026-04-30 19:43 52.07323 5.58042 18907 ft 377 kts 126°
2026-04-30 19:43 52.05765 5.61502 19469 ft 381 kts 126°
2026-04-30 19:43 52.04188 5.65002 20044 ft 385 kts 126°
2026-04-30 19:44 52.01001 5.72060 21172 ft 393 kts 126°
2026-04-30 19:44 51.99372 5.75659 21736 ft 397 kts 126°
2026-04-30 19:44 51.97729 5.79284 22304 ft 400 kts 126°
2026-04-30 19:44 51.96069 5.82942 22863 ft 404 kts 126°
2026-04-30 19:45 51.94395 5.86627 23410 ft 408 kts 126°
2026-04-30 19:45 51.92703 5.90345 23948 ft 412 kts 126°
2026-04-30 19:45 51.90994 5.94094 24389 ft 415 kts 126°
2026-04-30 19:45 51.89274 5.97867 24874 ft 418 kts 126°
2026-04-30 19:46 51.87538 6.01665 25317 ft 421 kts 126°
2026-04-30 19:46 51.85787 6.05483 25754 ft 424 kts 126°
2026-04-30 19:46 51.83905 6.09197 26178 ft 428 kts 130°
2026-04-30 19:46 51.81912 6.12797 26616 ft 431 kts 131°
2026-04-30 19:47 51.79890 6.16396 27059 ft 434 kts 131°
2026-04-30 19:47 51.78549 6.18808 27345 ft 436 kts 130°
2026-04-30 19:47 51.75843 6.23728 27884 ft 440 kts 130°
2026-04-30 19:47 51.73835 6.27399 28286 ft 443 kts 130°
2026-04-30 19:48 51.71792 6.31133 28765 ft 444 kts 130°
2026-04-30 19:48 51.69749 6.34863 29351 ft 443 kts 130°
2026-04-30 19:48 51.67714 6.38569 29996 ft 441 kts 130°
2026-04-30 19:48 51.65682 6.42265 30548 ft 440 kts 130°
2026-04-30 19:49 51.63651 6.45948 30966 ft 440 kts 130°
2026-04-30 19:49 51.59577 6.53322 31332 ft 438 kts 130°
2026-04-30 19:49 51.58237 6.55742 31323 ft 438 kts 130°
2026-04-30 19:50 51.54168 6.63082 31345 ft 440 kts 130°
2026-04-30 19:50 51.50082 6.70435 31347 ft 442 kts 130°
2026-04-30 19:51 51.45978 6.77800 31348 ft 443 kts 130°
2026-04-30 19:51 51.41851 6.85185 31350 ft 444 kts 130°
2026-04-30 19:52 51.37860 6.92721 31338 ft 443 kts 127°
2026-04-30 19:52 51.34095 7.00442 31351 ft 442 kts 126°
2026-04-30 19:53 51.30279 7.08154 31353 ft 441 kts 127°
2026-04-30 19:53 51.26017 7.15216 31350 ft 443 kts 141°
2026-04-30 19:54 51.20666 7.20111 31312 ft 441 kts 153°
2026-04-30 19:54 51.17914 7.22176 30868 ft 435 kts 153°
2026-04-30 19:54 51.15188 7.24261 30048 ft 435 kts 152°
2026-04-30 19:55 51.12459 7.26393 28952 ft 440 kts 152°
2026-04-30 19:55 51.09718 7.28635 27819 ft 444 kts 150°
2026-04-30 19:55 51.06990 7.30994 26731 ft 448 kts 149°
2026-04-30 19:55 51.04288 7.33345 25723 ft 449 kts 149°
2026-04-30 19:56 51.01531 7.35668 24969 ft 445 kts 150°
2026-04-30 19:56 50.98793 7.37908 24355 ft 438 kts 150°
2026-04-30 19:56 50.96102 7.40086 23684 ft 431 kts 150°
2026-04-30 19:56 50.93441 7.42236 22889 ft 427 kts 150°
2026-04-30 19:57 50.90807 7.44369 22106 ft 422 kts 150°
2026-04-30 19:57 50.88202 7.46484 21367 ft 418 kts 150°
2026-04-30 19:57 50.85624 7.48578 20640 ft 414 kts 150°
2026-04-30 19:57 50.83110 7.50621 19946 ft 409 kts 149°